WXM80 ListenWXM80 Stop

You find our weather info also at:

UK Metoffice

WeatherCloud

Weather Underground

Northeastern Weather Network

AWEKAS

Citizen Weather Observer Program (CWOP)

HAMweather, WeatherForYou, PWS Weather


Weather Underground History page Text

Daily Summary for February 18, 2018 Units:  Metric    English   Both
« Previous Day
Next Day »
Daily Weekly Monthly Yearly Custom
  High: Low: Average:
Temperature: 7.8 °C -1 °C 3 °C
Dew Point: 1.2 °C -3.1 °C -0.8 °C
Humidity: 97 % 51 % 78 %
Wind Speed: 16.7 km/h 0 km/h 4 km/h
Wind Gust: 24.1 km/h - -
Wind:- - West
Pressure: 1025.3 hPa 1005.3 hPa -
Precipitation: 0.51 mm    
Historical Graphs
 
 
Tabular Data for February 18, 2018
Time Temperature Dew Point Pressure Wind Wind Speed Wind Gust Humidity Rainfall Rate (Hourly)
00:00 0.6 °C 0.1 °C 1007.3 hPa Calm     97 % 1.52 mm
00:05 0.6 °C 0.1 °C 1007.3 hPa Calm     97 % 1.27 mm
00:10 0.6 °C 0.1 °C 1007 hPa Calm     97 % 1.27 mm
00:15 0.6 °C 0.1 °C 1007 hPa Calm     97 % 1.02 mm
00:20 0.6 °C 0 °C 1006.7 hPa Calm     96 % 0.76 mm
00:25 0.6 °C 0.1 °C 1006.7 hPa Calm     97 % 1.02 mm
00:30 0.6 °C 0 °C 1006.7 hPa Calm     96 % 0.76 mm
00:35 0.6 °C 0 °C 1006.3 hPa Calm     96 % 0.76 mm
00:40 0.6 °C 0 °C 1006.3 hPa Calm     96 % 0.51 mm
00:45 0.6 °C 0.1 °C 1006 hPa Calm     97 % 0.51 mm
00:50 0.6 °C 0.1 °C 1006 hPa Calm     97 % 0.51 mm
00:55 0.6 °C 0.1 °C 1006 hPa Calm     97 % 0.51 mm
01:00 0.6 °C 0.1 °C 1006 hPa Calm     97 % 0.51 mm
01:05 0.6 °C 0.1 °C 1005.6 hPa Calm     97 % 0.51 mm
01:11 0.6 °C 0.1 °C 1005.6 hPa Calm     97 % 0 mm
01:16 0.6 °C 0.1 °C 1005.6 hPa Calm     97 % 0 mm
01:21 0.6 °C 0.1 °C 1005.6 hPa Calm     97 % 0 mm
01:26 0.6 °C 0.1 °C 1005.6 hPa Calm     97 % 0 mm
01:31 0.6 °C 0.1 °C 1005.6 hPa Calm     97 % 0 mm
01:36 0.6 °C 0.1 °C 1005.3 hPa Calm     97 % 0 mm
01:41 0.6 °C 0.1 °C 1005.3 hPa Calm     97 % 0 mm
01:46 0.6 °C 0.2 °C 1005.6 hPa Calm     97 % 0 mm
01:51 0.6 °C 0.2 °C 1005.6 hPa Calm     97 % 0 mm
01:56 0.6 °C 0.2 °C 1006 hPa Calm     97 % 0.25 mm
02:01 0.6 °C 0.2 °C 1005.6 hPa Calm     97 % 0 mm
02:06 0.6 °C 0.2 °C 1005.3 hPa Calm     97 % 0 mm
02:11 0.7 °C 0.2 °C 1005.6 hPa Calm     97 % 0 mm
02:16 0.7 °C 0.2 °C 1005.6 hPa Calm     97 % 0 mm
02:21 0.7 °C 0.2 °C 1006 hPa Calm     97 % 0 mm
02:26 0.7 °C 0.2 °C 1006 hPa Calm     97 % 0 mm
02:31 0.7 °C 0.2 °C 1005.6 hPa Calm     97 % 0 mm
02:36 0.7 °C 0.2 °C 1005.6 hPa Calm     97 % 0 mm
02:41 0.7 °C 0.2 °C 1005.3 hPa Calm     97 % 0 mm
02:46 0.7 °C 0.2 °C 1005.3 hPa Calm     97 % 0 mm
02:51 0.7 °C 0.3 °C 1005.3 hPa Calm     97 % 0 mm
02:56 0.7 °C 0.3 °C 1005.3 hPa Calm     97 % 0 mm
03:01 0.7 °C 0.2 °C 1005.3 hPa Calm     97 % 0 mm
03:06 0.7 °C 0.2 °C 1005.3 hPa Calm     97 % 0 mm
03:11 0.7 °C 0.3 °C 1005.6 hPa Calm     97 % 0 mm
03:17 0.7 °C 0.3 °C 1005.6 hPa Calm     97 % 0 mm
03:22 0.7 °C 0.3 °C 1005.6 hPa Calm   1.9 km/h 97 % 0 mm
03:27 0.8 °C 0.3 °C 1006 hPa West 4 km/h 7.4 km/h 97 % 0 mm
03:32 0.8 °C 0.3 °C 1006.3 hPa WSW 3.2 km/h 7.4 km/h 97 % 0 mm
03:37 0.8 °C 0.3 °C 1006.3 hPa West 4 km/h 9.3 km/h 97 % 0 mm
03:42 0.8 °C 0.4 °C 1006.3 hPa West 1 km/h 5.6 km/h 97 % 0 mm
03:47 0.8 °C 0.4 °C 1006.3 hPa West 3.9 km/h 11.1 km/h 97 % 0 mm
03:52 0.8 °C 0.4 °C 1006.3 hPa West 5.5 km/h 9.3 km/h 97 % 0 mm
03:57 0.8 °C 0.4 °C 1006.3 hPa West 7.9 km/h 11.3 km/h 97 % 0 mm
04:02 0.8 °C 0.4 °C 1006.7 hPa WNW 0.8 km/h 9.3 km/h 97 % 0 mm
04:07 0.8 °C 0.4 °C 1006.7 hPa WSW 5.3 km/h 11.1 km/h 97 % 0 mm
04:12 0.9 °C 0.4 °C 1007 hPa WNW 8 km/h 16.1 km/h 97 % 0 mm
04:17 0.9 °C 0.4 °C 1006.7 hPa West 6.1 km/h 9.3 km/h 97 % 0 mm
04:22 0.9 °C 0.4 °C 1007 hPa WSW 7.7 km/h 14.8 km/h 97 % 0 mm
04:27 0.9 °C 0.4 °C 1007 hPa WNW 10.9 km/h 18.5 km/h 97 % 0 mm
04:32 0.9 °C 0.4 °C 1007.3 hPa WSW 5.6 km/h 8 km/h 97 % 0 mm
04:37 0.9 °C 0.4 °C 1007.3 hPa West 7.4 km/h 18.5 km/h 97 % 0 mm
04:42 0.9 °C 0.4 °C 1007.3 hPa West 5.1 km/h 18.5 km/h 97 % 0 mm
04:48 0.9 °C 0.4 °C 1007.3 hPa West 6 km/h 16.7 km/h 97 % 0 mm
04:53 0.8 °C 0.4 °C 1007.3 hPa West 5.6 km/h 14.8 km/h 97 % 0 mm
04:58 0.8 °C 0.4 °C 1007.7 hPa West 3.7 km/h 18.5 km/h 97 % 0 mm
05:03 0.8 °C 0.4 °C 1007.7 hPa West 4.3 km/h 9.3 km/h 97 % 0 mm
05:08 0.8 °C 0.4 °C 1008 hPa West 4.5 km/h 7.4 km/h 97 % 0 mm
05:13 0.8 °C 0.4 °C 1008 hPa WSW 7.1 km/h 14.8 km/h 97 % 0 mm
05:18 0.8 °C 0.4 °C 1008 hPa West 2.3 km/h 5.6 km/h 97 % 0 mm
05:23 0.8 °C 0.4 °C 1008 hPa WSW 7.4 km/h 14.8 km/h 97 % 0 mm
05:28 0.8 °C 0.4 °C 1008 hPa West 6 km/h 12.9 km/h 97 % 0 mm
05:33 0.8 °C 0.4 °C 1008.4 hPa West 4.7 km/h 13 km/h 97 % 0 mm
05:38 0.8 °C 0.4 °C 1008.4 hPa West 6.4 km/h 11.3 km/h 97 % 0 mm
05:43 0.8 °C 0.4 °C 1008.4 hPa WSW 11.7 km/h 16.7 km/h 97 % 0 mm
05:48 0.8 °C 0.4 °C 1008.7 hPa WSW 5.8 km/h 13 km/h 97 % 0 mm
05:53 0.9 °C 0.4 °C 1008.7 hPa WNW 5.3 km/h 9.3 km/h 97 % 0 mm
05:58 0.9 °C 0.4 °C 1009 hPa WNW 8.4 km/h 12.9 km/h 97 % 0 mm
06:03 0.9 °C 0.4 °C 1009 hPa WNW 4.2 km/h 16.7 km/h 97 % 0 mm
06:09 0.9 °C 0.5 °C 1009.4 hPa WNW 6.6 km/h 20.4 km/h 97 % 0 mm
06:14 0.9 °C 0.4 °C 1009.4 hPa WSW 6.6 km/h 14.8 km/h 97 % 0 mm
06:19 0.9 °C 0.4 °C 1009.7 hPa WSW 9.5 km/h 14.8 km/h 97 % 0 mm
06:24 0.9 °C 0.4 °C 1009.7 hPa NW 7.1 km/h 11.3 km/h 97 % 0 mm
06:29 0.9 °C 0.3 °C 1009.7 hPa WNW 6 km/h 13 km/h 96 % 0 mm
06:34 0.9 °C 0.3 °C 1009.7 hPa WSW 6.9 km/h 20.4 km/h 96 % 0 mm
06:39 0.9 °C 0.3 °C 1010 hPa WNW 6.1 km/h 17.7 km/h 96 % 0 mm
06:44 0.9 °C 0.3 °C 1010 hPa WNW 4.7 km/h 8 km/h 96 % 0 mm
06:49 0.9 °C 0.3 °C 1010 hPa WNW 3.9 km/h 9.3 km/h 96 % 0 mm
06:54 0.9 °C 0.3 °C 1010.4 hPa West 7.7 km/h 11.1 km/h 96 % 0 mm
06:59 0.9 °C 0.4 °C 1010.4 hPa WNW 7.2 km/h 11.1 km/h 96 % 0 mm
07:04 0.9 °C 0.2 °C 1010.4 hPa WNW 5.8 km/h 16.7 km/h 95 % 0 mm
07:09 1 °C 0.3 °C 1010.7 hPa WNW 9.7 km/h 14.8 km/h 95 % 0 mm
07:14 1.1 °C 0.3 °C 1011.1 hPa West 10.3 km/h 16.7 km/h 95 % 0 mm
07:19 1.2 °C 0.3 °C 1011.4 hPa NW 4 km/h 14.8 km/h 94 % 0 mm
07:24 1.2 °C 0.4 °C 1011.7 hPa West 10.9 km/h 16.7 km/h 94 % 0 mm
07:29 1.3 °C 0.3 °C 1011.7 hPa WNW 5.3 km/h 16.1 km/h 93 % 0 mm
07:35 1.3 °C 0.3 °C 1012.1 hPa WNW 5.8 km/h 18.5 km/h 93 % 0 mm
07:40 1.3 °C 0.2 °C 1012.4 hPa NW 10.5 km/h 16.1 km/h 92 % 0 mm
07:45 1.4 °C 0.2 °C 1012.4 hPa WNW 11.4 km/h 24.1 km/h 92 % 0 mm
07:50 1.4 °C 0.1 °C 1012.4 hPa SW 6.4 km/h 14.8 km/h 91 % 0 mm
07:55 1.5 °C 0.2 °C 1012.8 hPa NW 10 km/h 14.8 km/h 91 % 0 mm
08:00 1.5 °C 0.1 °C 1012.8 hPa WNW 9 km/h 22.2 km/h 90 % 0 mm
08:05 1.6 °C 0.1 °C 1012.8 hPa WNW 6.3 km/h 11.1 km/h 90 % 0 mm
08:10 1.6 °C 0 °C 1012.8 hPa NNW 6.3 km/h 13 km/h 89 % 0 mm
08:15 1.7 °C 0.1 °C 1012.8 hPa North 16.7 km/h 22.2 km/h 89 % 0 mm
08:20 1.8 °C 0.2 °C 1013.1 hPa NW 7.4 km/h 16.7 km/h 89 % 0 mm
08:25 1.9 °C 0.2 °C 1013.1 hPa NNW 6.6 km/h 14.8 km/h 88 % 0 mm
08:30 2 °C 0.2 °C 1013.1 hPa WNW 10.8 km/h 17.7 km/h 88 % 0 mm
08:35 2.1 °C 0.2 °C 1013.1 hPa West 7.2 km/h 11.1 km/h 87 % 0 mm
08:40 2.2 °C 0.3 °C 1013.1 hPa NW 4.8 km/h 5.6 km/h 87 % 0 mm
08:45 2.3 °C 0.2 °C 1013.4 hPa North 6.4 km/h 14.8 km/h 86 % 0 mm
08:51 2.4 °C 0.1 °C 1013.4 hPa WNW 5.6 km/h 13 km/h 85 % 0 mm
08:56 2.6 °C 0.3 °C 1013.4 hPa NW 4.8 km/h 14.5 km/h 85 % 0 mm
09:01 2.7 °C 0.3 °C 1013.8 hPa NNW 5.5 km/h 14.8 km/h 84 % 0 mm
09:06 2.9 °C 0.4 °C 1014.1 hPa WNW 6.9 km/h 11.1 km/h 84 % 0 mm
09:11 3.1 °C 0.4 °C 1014.1 hPa WNW 11.4 km/h 16.7 km/h 83 % 0 mm
09:16 3.2 °C 0.6 °C 1014.4 hPa WNW 7.4 km/h 11.1 km/h 83 % 0 mm
09:21 3.3 °C 0.6 °C 1014.4 hPa NNW 6.1 km/h 14.8 km/h 82 % 0 mm
09:26 3.5 °C 0.6 °C 1014.4 hPa WNW 5.6 km/h 11.3 km/h 81 % 0 mm
09:31 3.5 °C 0.6 °C 1014.1 hPa North 8.2 km/h 13 km/h 81 % 0 mm
09:36 3.7 °C 1.1 °C 1014.4 hPa NW 3.4 km/h 9.7 km/h 83 % 0 mm
09:41 3.8 °C 1.2 °C 1014.4 hPa NNW 0.8 km/h 5.6 km/h 83 % 0 mm
09:46 3.9 °C 1 °C 1014.8 hPa North 2.4 km/h 7.4 km/h 81 % 0 mm
09:51 4.1 °C 1.1 °C 1015.1 hPa NNW 5.6 km/h 9.3 km/h 81 % 0 mm
09:56 4.2 °C 1 °C 1015.1 hPa North 5.5 km/h 13 km/h 80 % 0 mm
10:01 4.2 °C 0.7 °C 1015.5 hPa NNE 11.3 km/h 16.1 km/h 78 % 0 mm
10:06 4.2 °C 0.3 °C 1015.5 hPa NNW 6.8 km/h 14.8 km/h 76 % 0 mm
10:12 4.2 °C 0.2 °C 1015.5 hPa NNW 6.9 km/h 14.8 km/h 75 % 0 mm
10:17 4.3 °C 0.3 °C 1015.5 hPa NNW 2.9 km/h 11.1 km/h 75 % 0 mm
10:22 4.5 °C 0.3 °C 1015.5 hPa North 4 km/h 11.1 km/h 74 % 0 mm
10:27 4.7 °C 0.1 °C 1015.8 hPa NNW 4.3 km/h 9.3 km/h 72 % 0 mm
10:32 4.7 °C -0.1 °C 1016.1 hPa West 6 km/h 14.8 km/h 71 % 0 mm
10:37 4.8 °C -0.2 °C 1016.5 hPa NNW 7.1 km/h 14.8 km/h 70 % 0 mm
10:42 4.9 °C -0.3 °C 1016.8 hPa North 8.5 km/h 11.3 km/h 69 % 0 mm
10:47 4.9 °C -0.3 °C 1016.5 hPa NNW 10.6 km/h 18.5 km/h 69 % 0 mm
10:52 5.1 °C 0.1 °C 1016.5 hPa NNW 8.2 km/h 14.8 km/h 70 % 0 mm
10:57 5.2 °C -0.2 °C 1016.5 hPa WNW 9.2 km/h 16.7 km/h 68 % 0 mm
11:02 5.4 °C 0 °C 1016.5 hPa WNW 8.7 km/h 14.5 km/h 68 % 0 mm
11:07 5.6 °C 0.2 °C 1017.2 hPa NNW 11.6 km/h 19.3 km/h 68 % 0 mm
11:12 5.7 °C -0.2 °C 1017.2 hPa NW 7.4 km/h 13 km/h 66 % 0 mm
11:17 5.7 °C 0.1 °C 1017.2 hPa NW 7.6 km/h 11.1 km/h 67 % 0 mm
11:22 5.9 °C 0 °C 1016.8 hPa North 6.4 km/h 13 km/h 66 % 0 mm
11:27 6 °C 0.1 °C 1016.8 hPa NW 5.6 km/h 13 km/h 66 % 0 mm
11:32 6.2 °C 0.3 °C 1017.2 hPa WNW 7.9 km/h 13 km/h 66 % 0 mm
11:37 6.3 °C 0.2 °C 1017.5 hPa West 6.9 km/h 11.1 km/h 65 % 0 mm
11:42 6.2 °C -0.5 °C 1017.8 hPa NW 8.4 km/h 11.3 km/h 62 % 0 mm
11:47 6.3 °C -0.3 °C 1017.8 hPa WNW 5.8 km/h 6.4 km/h 63 % 0 mm
11:53 6.3 °C -0.5 °C 1017.8 hPa NW 9.2 km/h 16.7 km/h 62 % 0 mm
11:58 6.3 °C -0.3 °C 1017.8 hPa WNW 7.6 km/h 18.5 km/h 63 % 0 mm
12:03 6.3 °C -0.3 °C 1017.8 hPa WNW 7.7 km/h 13 km/h 63 % 0 mm
12:08 6.3 °C -0.7 °C 1018.2 hPa NW 7.6 km/h 13 km/h 61 % 0 mm
12:13 6.2 °C -1.1 °C 1017.8 hPa North 7.6 km/h 14.8 km/h 60 % 0 mm
12:18 6.2 °C -0.3 °C 1017.8 hPa NNW 6 km/h 9.7 km/h 63 % 0 mm
12:23 6.2 °C -1.2 °C 1018.2 hPa WNW 1.1 km/h 7.4 km/h 59 % 0 mm
12:28 6.4 °C -0.6 °C 1018.5 hPa West 3.1 km/h 6.4 km/h 61 % 0 mm
12:33 6.7 °C -1 °C 1018.5 hPa NW 1.4 km/h 5.6 km/h 58 % 0 mm
12:38 6.8 °C -0.6 °C 1018.5 hPa NW 4.3 km/h 9.7 km/h 59 % 0 mm
12:43 6.9 °C -0.8 °C 1018.5 hPa WNW 6 km/h 9.3 km/h 58 % 0 mm
12:48 7.1 °C -0.4 °C 1018.5 hPa SW 5.8 km/h 11.3 km/h 59 % 0 mm
12:53 7.2 °C -1 °C 1018.5 hPa West 8.2 km/h 13 km/h 56 % 0 mm
12:58 7.2 °C -1.5 °C 1018.5 hPa WSW 8.4 km/h 14.5 km/h 54 % 0 mm
13:03 7.3 °C -1.7 °C 1018.5 hPa West 2.6 km/h 7.4 km/h 53 % 0 mm
13:08 7.3 °C -1.4 °C 1018.2 hPa NW 6 km/h 8 km/h 54 % 0 mm
13:13 7.4 °C -1.1 °C 1018.2 hPa WNW 8.4 km/h 17.7 km/h 55 % 0 mm
13:18 7.4 °C -1.3 °C 1018.2 hPa NNW 5.1 km/h 13 km/h 54 % 0 mm
13:23 7.6 °C -0.7 °C 1018.5 hPa WNW 6.4 km/h 9.7 km/h 56 % 0 mm
13:28 7.6 °C -1.7 °C 1018.5 hPa WNW 7.7 km/h 14.8 km/h 52 % 0 mm
13:33 7.6 °C -1.7 °C 1018.5 hPa WNW 9.3 km/h 18.5 km/h 52 % 0 mm
13:39 7.6 °C -1.6 °C 1018.2 hPa West 6.8 km/h 13 km/h 52 % 0 mm
13:44 7.6 °C -1.4 °C 1018.5 hPa SW 7.1 km/h 16.7 km/h 53 % 0 mm
13:49 7.7 °C -1.6 °C 1018.5 hPa West 9 km/h 11.1 km/h 52 % 0 mm
13:54 7.7 °C -1.8 °C 1018.8 hPa WNW 2.1 km/h 7.4 km/h 51 % 0 mm
13:59 7.7 °C -1.8 °C 1018.8 hPa WNW 7.1 km/h 13 km/h 51 % 0 mm
14:04 7.7 °C -1.8 °C 1018.5 hPa West 6.4 km/h 13 km/h 51 % 0 mm
14:09 7.7 °C -1.6 °C 1018.5 hPa West 4.8 km/h 9.3 km/h 52 % 0 mm
14:14 7.8 °C -1.5 °C 1018.8 hPa WNW 7.9 km/h 18.5 km/h 52 % 0 mm
14:19 7.8 °C -1.5 °C 1018.8 hPa WSW 6.9 km/h 13 km/h 52 % 0 mm
14:24 7.8 °C -1.4 °C 1018.8 hPa NW 5.1 km/h 9.7 km/h 52 % 0 mm
14:29 7.8 °C -1.7 °C 1018.8 hPa West 7.7 km/h 11.3 km/h 51 % 0 mm
14:34 7.7 °C -1.8 °C 1018.8 hPa NW 5.1 km/h 9.7 km/h 51 % 0 mm
14:39 7.6 °C -1.9 °C 1018.8 hPa WNW 5.3 km/h 13 km/h 51 % 0 mm
14:44 7.5 °C -1.7 °C 1018.8 hPa WNW 10.6 km/h 20.4 km/h 52 % 0 mm
14:49 7.4 °C -2.1 °C 1018.8 hPa West 3.1 km/h 14.8 km/h 51 % 0 mm
14:54 7.3 °C -1.9 °C 1018.8 hPa NW 8.5 km/h 11.1 km/h 52 % 0 mm
14:59 7.2 °C -1.5 °C 1019.2 hPa SW 7.9 km/h 11.3 km/h 54 % 0 mm
15:04 7.1 °C -2.1 °C 1019.2 hPa WNW 8 km/h 16.7 km/h 52 % 0 mm
15:09 7.1 °C -1.6 °C 1019.2 hPa West 6.4 km/h 14.5 km/h 54 % 0 mm
15:14 6.9 °C -1.7 °C 1018.8 hPa West 3.2 km/h 7.4 km/h 54 % 0 mm
15:19 6.9 °C -1.7 °C 1018.8 hPa NW 8.2 km/h 14.8 km/h 54 % 0 mm
15:24 6.8 °C -2.1 °C 1019.2 hPa WNW 5.3 km/h 8 km/h 53 % 0 mm
15:30 6.8 °C -2.2 °C 1019.2 hPa WNW 3.4 km/h 9.3 km/h 53 % 0 mm
15:35 6.7 °C -2.2 °C 1019.2 hPa WNW 8.9 km/h 18.5 km/h 53 % 0 mm
15:40 6.7 °C -1.9 °C 1019.2 hPa WNW 8.9 km/h 18.5 km/h 54 % 0 mm
15:45 6.7 °C -2 °C 1019.2 hPa WNW 8 km/h 14.8 km/h 54 % 0 mm
15:50 6.6 °C -2.1 °C 1019.2 hPa SW 7.2 km/h 13 km/h 54 % 0 mm
15:55 6.6 °C -1.8 °C 1019.5 hPa WNW 5.3 km/h 9.3 km/h 55 % 0 mm
16:00 6.6 °C -1.8 °C 1019.5 hPa NW 1.6 km/h 5.6 km/h 55 % 0 mm
16:05 6.6 °C -2.1 °C 1019.5 hPa WSW 1.8 km/h 5.6 km/h 54 % 0 mm
16:10 6.5 °C -1.9 °C 1019.5 hPa West 7.1 km/h 12.9 km/h 55 % 0 mm
16:15 6.4 °C -1.7 °C 1019.9 hPa WSW 8.4 km/h 13 km/h 56 % 0 mm
16:20 6.4 °C -1.8 °C 1019.9 hPa West 4.5 km/h 9.3 km/h 56 % 0 mm
16:25 6.3 °C -1.8 °C 1019.9 hPa WNW 6.6 km/h 13 km/h 56 % 0 mm
16:30 6.3 °C -1.6 °C 1019.9 hPa WNW 3.7 km/h 9.3 km/h 57 % 0 mm
16:36 6.2 °C -1.4 °C 1020.2 hPa West 4.8 km/h 12.9 km/h 58 % 0 mm
16:41 6.1 °C -1.8 °C 1020.2 hPa WSW 8 km/h 14.5 km/h 57 % 0 mm
16:45 6.1 °C -1.8 °C 1020.2 hPa WNW 5 km/h 8 km/h 57 % 0 mm
16:51 6 °C -1.6 °C 1020.2 hPa WNW 4.8 km/h 12.9 km/h 58 % 0 mm
16:56 5.9 °C -1.7 °C 1020.2 hPa WNW 3.2 km/h 14.5 km/h 58 % 0 mm
17:01 5.8 °C -1.6 °C 1020.5 hPa SW 3.5 km/h 5.6 km/h 59 % 0 mm
17:06 5.8 °C -1.6 °C 1020.5 hPa NW 7.4 km/h 11.1 km/h 59 % 0 mm
17:11 5.7 °C -1.7 °C 1020.9 hPa West 6.9 km/h 14.8 km/h 59 % 0 mm
17:16 5.7 °C -1.5 °C 1020.9 hPa SSW 3.7 km/h 5.6 km/h 60 % 0 mm
17:21 5.6 °C -1.4 °C 1021.2 hPa West 7.1 km/h 13 km/h 61 % 0 mm
17:26 5.4 °C -1.5 °C 1020.9 hPa WSW 6.8 km/h 11.1 km/h 61 % 0 mm
17:31 5.3 °C -1.6 °C 1021.6 hPa WSW 1.3 km/h 3.7 km/h 61 % 0 mm
17:36 5.3 °C -1.4 °C 1021.6 hPa WSW 1.9 km/h 3.7 km/h 62 % 0 mm
17:41 5.2 °C -1.3 °C 1021.6 hPa West 2.7 km/h 9.3 km/h 63 % 0 mm
17:46 5.1 °C -1.4 °C 1021.9 hPa West 2.3 km/h 5.6 km/h 63 % 0 mm
17:51 5 °C -1.4 °C 1021.6 hPa WSW 4.7 km/h 7.4 km/h 63 % 0 mm
17:56 4.9 °C -1.3 °C 1021.9 hPa WNW 1.1 km/h 7.4 km/h 64 % 0 mm
18:01 4.8 °C -1.2 °C 1021.9 hPa SW 1.8 km/h 9.3 km/h 65 % 0 mm
18:06 4.7 °C -1.1 °C 1021.9 hPa Calm   5.6 km/h 66 % 0 mm
18:11 4.6 °C -1.2 °C 1021.9 hPa WNW 1.6 km/h 4.8 km/h 66 % 0 mm
18:16 4.6 °C -1.3 °C 1021.9 hPa Calm     66 % 0 mm
18:22 4.4 °C -1.3 °C 1022.2 hPa SW 3.2 km/h 3.2 km/h 66 % 0 mm
18:27 4.3 °C -1.3 °C 1022.2 hPa SW 1 km/h 3.7 km/h 67 % 0 mm
18:32 4.3 °C -1.1 °C 1022.2 hPa WSW 3.4 km/h 9.3 km/h 68 % 0 mm
18:37 4.1 °C -1.1 °C 1022.6 hPa SW 1.8 km/h 5.6 km/h 69 % 0 mm
18:42 4 °C -1.2 °C 1022.6 hPa Calm     69 % 0 mm
18:47 3.8 °C -1.2 °C 1022.6 hPa SW 0.3 km/h 1.9 km/h 70 % 0 mm
18:52 3.7 °C -1.2 °C 1022.6 hPa SW 0.5 km/h 3.7 km/h 70 % 0 mm
18:57 3.6 °C -1.3 °C 1022.9 hPa Calm     70 % 0 mm
19:02 3.5 °C -1.3 °C 1022.6 hPa Calm   1.9 km/h 71 % 0 mm
19:07 3.3 °C -1.4 °C 1022.9 hPa Calm   1.9 km/h 71 % 0 mm
19:12 3.2 °C -1.6 °C 1022.9 hPa Calm     71 % 0 mm
19:17 3.1 °C -1.7 °C 1022.9 hPa SW 3.1 km/h 5.6 km/h 71 % 0 mm
19:22 2.9 °C -1.6 °C 1022.9 hPa Calm     72 % 0 mm
19:27 2.8 °C -1.8 °C 1023.2 hPa Calm   1.9 km/h 72 % 0 mm
19:32 2.7 °C -1.7 °C 1022.9 hPa Calm     73 % 0 mm
19:37 2.6 °C -1.8 °C 1022.9 hPa WSW 1.8 km/h 1.9 km/h 73 % 0 mm
19:43 2.4 °C -1.9 °C 1023.2 hPa WSW 2.1 km/h 5.6 km/h 73 % 0 mm
19:48 2.3 °C -2 °C 1023.2 hPa Calm     73 % 0 mm
19:53 2.3 °C -1.9 °C 1023.2 hPa WSW 1.8 km/h 1.9 km/h 74 % 0 mm
19:58 2.2 °C -1.9 °C 1023.2 hPa West 2.1 km/h 9.3 km/h 74 % 0 mm
20:03 2.2 °C -2 °C 1023.2 hPa WNW 1.3 km/h 5.6 km/h 74 % 0 mm
20:08 2.2 °C -2 °C 1023.9 hPa West 1.4 km/h 5.6 km/h 74 % 0 mm
20:13 2.1 °C -1.9 °C 1023.6 hPa West 0.3 km/h 1.6 km/h 75 % 0 mm
20:18 2.1 °C -1.9 °C 1023.9 hPa Calm   1.9 km/h 75 % 0 mm
20:23 2.1 °C -1.9 °C 1023.9 hPa West 2.4 km/h 5.6 km/h 75 % 0 mm
20:28 2 °C -1.9 °C 1023.9 hPa Calm     75 % 0 mm
20:33 2 °C -1.9 °C 1023.9 hPa Calm     75 % 0 mm
20:38 1.9 °C -1.8 °C 1023.9 hPa West 2.6 km/h 3.7 km/h 76 % 0 mm
20:43 1.8 °C -1.9 °C 1023.9 hPa Calm     76 % 0 mm
20:48 1.8 °C -2 °C 1024.3 hPa West 2.6 km/h 5.6 km/h 76 % 0 mm
20:53 1.7 °C -1.9 °C 1024.3 hPa West 2.9 km/h 5.6 km/h 77 % 0 mm
20:58 1.6 °C -2 °C 1024.6 hPa Calm     77 % 0 mm
21:03 1.5 °C -1.9 °C 1024.3 hPa West 2.4 km/h 3.7 km/h 78 % 0 mm
21:08 1.4 °C -2.1 °C 1024.3 hPa Calm     78 % 0 mm
21:14 1.3 °C -1.9 °C 1024.6 hPa WSW 1.1 km/h 4.8 km/h 79 % 0 mm
21:19 1.2 °C -2.1 °C 1024.3 hPa SW 0.5 km/h 3.7 km/h 79 % 0 mm
21:24 1.1 °C -2.2 °C 1024.6 hPa Calm     79 % 0 mm
21:29 1 °C -2.2 °C 1024.6 hPa Calm     79 % 0 mm
21:34 0.8 °C -2.2 °C 1024.6 hPa Calm     80 % 0 mm
21:39 0.7 °C -2.3 °C 1024.6 hPa Calm     80 % 0 mm
21:44 0.7 °C -2.4 °C 1024.9 hPa Calm     80 % 0 mm
21:49 0.5 °C -2.6 °C 1024.9 hPa Calm     80 % 0 mm
21:54 0.4 °C -2.6 °C 1024.9 hPa Calm     80 % 0 mm
21:59 0.3 °C -2.6 °C 1024.9 hPa Calm     81 % 0 mm
22:04 0.2 °C -2.7 °C 1024.9 hPa Calm     81 % 0 mm
22:09 0.1 °C -2.7 °C 1024.9 hPa West 2.1 km/h 3.7 km/h 82 % 0 mm
22:14 -0.1 °C -2.8 °C 1025.3 hPa Calm     82 % 0 mm
22:19 -0.2 °C -2.7 °C 1024.9 hPa West 1.6 km/h 3.7 km/h 83 % 0 mm
22:24 -0.3 °C -2.8 °C 1025.3 hPa Calm     83 % 0 mm
22:29 -0.3 °C -2.9 °C 1025.3 hPa West 0.6 km/h 3.7 km/h 83 % 0 mm
22:34 -0.4 °C -2.8 °C 1025.3 hPa Calm     84 % 0 mm
22:39 -0.5 °C -2.9 °C 1025.3 hPa Calm   3.7 km/h 84 % 0 mm
22:44 -0.6 °C -3 °C 1024.9 hPa Calm     84 % 0 mm
22:49 -0.7 °C -2.9 °C 1024.9 hPa Calm     85 % 0 mm
22:55 -0.7 °C -2.9 °C 1024.9 hPa Calm     85 % 0 mm
23:00 -0.8 °C -3 °C 1024.9 hPa Calm     85 % 0 mm
23:05 -0.8 °C -3.1 °C 1025.3 hPa Calm     85 % 0 mm
23:10 -0.9 °C -3.1 °C 1025.3 hPa Calm     85 % 0 mm
23:15 -0.9 °C -3 °C 1024.9 hPa ENE 0.8 km/h 1.9 km/h 86 % 0 mm
23:20 -1 °C -2.9 °C 1025.3 hPa East 0.6 km/h 3.7 km/h 87 % 0 mm
23:25 -0.9 °C -2.8 °C 1024.9 hPa Calm     87 % 0 mm
23:30 -1 °C -2.9 °C 1024.9 hPa Calm     87 % 0 mm
23:35 -1 °C -2.9 °C 1024.9 hPa Calm     87 % 0 mm
23:40 -1 °C -2.9 °C 1025.3 hPa East 0.5 km/h 3.7 km/h 87 % 0 mm
23:45 -1 °C -2.7 °C 1025.3 hPa East 0.3 km/h 3.2 km/h 88 % 0 mm
23:50 -1 °C -2.7 °C 1025.3 hPa Calm     88 % 0 mm
23:55 -0.9 °C -2.7 °C 1025.3 hPa Calm   3.7 km/h 88 % 0 mm
Crab Meadow Weather
Compliments of Weather Underground - 3 mb

Script developed by  Jim McMurry - jmcmurry@mwt.net Adapted for the template by  Wim van der Kuil - Leuven-Template.eu

Recycling: Recycling 1 aluminum can saves enough energy to run your TV for 3 hours. Recycling aluminum cans saves 95% of the energy used to make cans from virgin ore.